Cape Girardeau, MO

4:32 PM CDT on August 20, 2017 (GMT -0500)
Cape Girardeau Regional

Weather History for KCGI - May, 2013

Change the Weather History Date:

Wednesday, May 29, 2013

  Actual Average Record
Temperature  
Mean Temperature 77 °F 70 °F  
Max Temperature 88 °F 82 °F 92 °F (1987)
Min Temperature 66 °F 59 °F 42 °F (1964)
Degree Days  
Heating Degree Days 0 1  
Month to date heating degree days 93 67  
Since 1 July heating degree days 4359 4385  
Cooling Degree Days 12 6  
Month to date cooling degree days 122 108  
Year to date cooling degree days 147 139  
Growing Degree Days 27 (Base 50)    
Moisture  
Dew Point 63 °F    
Average Humidity 62    
Maximum Humidity 81    
Minimum Humidity 43    
Precipitation  
Precipitation 0.00 in 0.15 in 0.80 in (1975)
Month to date precipitation 2.25 5.18  
Year to date precipitation 15.07 20.82  
Sea Level Pressure  
Sea Level Pressure 29.96 in    
Wind  
Wind Speed 11 mph (South)    
Max Wind Speed 21 mph    
Max Gust Speed 29 mph    
Visibility 10 miles    
Events      
T = Trace of Precipitation, MM = Missing Value Source: NWS Daily Summary

Daily Weather History Graph

Daily Weather History Graph

Search for Another Location

Airport or City:

Trip Planner

Search our weather history database for the weather conditions in past years. The results will help you decide how hot, cold, wet, or windy it might be!

Date:

Astronomy

May. 29, 2013 Rise Set
Actual Time 5:40 AM CDT 8:11 PM CDT
Civil Twilight 5:10 AM CDT 8:41 PM CDT
Nautical Twilight 4:33 AM CDT 9:18 PM CDT
Astronomical Twilight 3:51 AM CDT 10:00 PM CDT
Moon No Moon Rise 10:36 AM CDT (5/29)
Length of Visible Light 15h 30m
Length of Day
14h 30m
Waning Gibbous, 73% of the Moon is Illuminated
May 29
Waning Gibbous
May 31
Last Quarter
Jun 8
New
Jun 16
First Quarter
Jun 23
Full

Hourly Weather History & Observations

Time (CDT) Temp. Heat Index Dew Point Humidity Pressure Visibility Wind Dir Wind Speed Gust Speed Precip Events Conditions
12:53 AM 73.9 °F - 60.1 °F 62% 29.94 in 10.0 mi South 9.2 mph 17.3 mph N/A   Clear
1:53 AM 71.1 °F - 60.1 °F 68% 29.95 in 10.0 mi SSE 8.1 mph - N/A   Clear
2:53 AM 69.1 °F - 60.1 °F 73% 29.95 in 10.0 mi SSE 6.9 mph - N/A   Clear
3:53 AM 71.1 °F - 60.1 °F 68% 29.97 in 10.0 mi South 8.1 mph - N/A   Clear
4:53 AM 69.1 °F - 60.1 °F 73% 29.98 in 10.0 mi WSW 3.5 mph - N/A   Clear
5:53 AM 66.9 °F - 60.1 °F 79% 30.01 in 10.0 mi NE 3.5 mph - N/A   Overcast
6:53 AM 68.0 °F - 62.1 °F 81% 30.02 in 10.0 mi Calm Calm - N/A   Overcast
7:53 AM 72.0 °F - 61.0 °F 68% 30.02 in 10.0 mi SSE 8.1 mph - N/A   Partly Cloudy
8:53 AM 75.9 °F - 62.1 °F 62% 30.03 in 10.0 mi South 10.4 mph - N/A   Clear
9:53 AM 79.0 °F - 64.9 °F 62% 30.02 in 10.0 mi SSW 9.2 mph - N/A   Clear
10:53 AM 80.1 °F 82.1 °F 66.0 °F 62% 30.01 in 10.0 mi SSW 13.8 mph - N/A   Scattered Clouds
11:53 AM 82.9 °F 85.4 °F 66.9 °F 58% 30.01 in 10.0 mi SSW 12.7 mph - N/A   Partly Cloudy
12:53 PM 84.0 °F 86.3 °F 66.0 °F 55% 29.98 in 10.0 mi SSW 12.7 mph 21.9 mph N/A   Partly Cloudy
1:53 PM 87.1 °F 88.3 °F 64.0 °F 46% 29.96 in 10.0 mi South 11.5 mph 24.2 mph N/A   Partly Cloudy
2:53 PM 87.1 °F 87.5 °F 62.1 °F 43% 29.95 in 10.0 mi South 21.9 mph 28.8 mph N/A   Clear
3:53 PM 88.0 °F 88.7 °F 63.0 °F 43% 29.94 in 10.0 mi SSE 20.7 mph 25.3 mph N/A   Clear
4:53 PM 87.1 °F 88.3 °F 64.0 °F 46% 29.93 in 10.0 mi South 15.0 mph 28.8 mph N/A   Clear
5:53 PM 84.0 °F 84.5 °F 62.1 °F 47% 29.92 in 10.0 mi South 16.1 mph 26.5 mph N/A   Clear
6:53 PM 84.0 °F 84.4 °F 61.0 °F 46% 29.91 in 10.0 mi South 11.5 mph - N/A   Clear
7:53 PM 82.0 °F 83.4 °F 64.0 °F 54% 29.90 in 10.0 mi SSE 15.0 mph 21.9 mph N/A   Clear
8:53 PM 80.1 °F 81.9 °F 64.9 °F 60% 29.90 in 10.0 mi South 11.5 mph - N/A   Clear
9:53 PM 79.0 °F - 64.9 °F 62% 29.89 in 10.0 mi South 11.5 mph - N/A   Clear
10:53 PM 77.0 °F - 66.0 °F 69% 29.92 in 10.0 mi SSE 6.9 mph - N/A   Clear
11:53 PM 77.0 °F - 66.0 °F 69% 29.94 in 10.0 mi SSE 9.2 mph - N/A   Mostly Cloudy